Location: Umburanas
(4.5000°S, 37.9667°W)
Time: 23:59:04
(UTC+00:00)

Cosmos 1633 Rocket - Pass Details

Date: 19 November 2019
Orbit: 608 x 622 km, 82.5° (Epoch: 10 December)

Event Time Altitude Azimuth Distance (km) Brightness Sun altitude
Rises 20:41:56 0° 360° (N) 2,883 6.3 -4.3°
Reaches altitude 10° 20:44:10 10° 2° (N) 1,981 5.4 -4.8°
Maximum altitude 20:48:32 72° 86° (E) 654 3.0 -5.8°
Drops below altitude 10° 20:52:56 10° 171° (S) 1,993 5.8 -6.9°
Sets 20:55:11 0° 173° (S) 2,902 6.7 -7.4°
